TimeCDT,TemperatureF,Dew PointF,Humidity,Sea Level PressureIn,VisibilityMPH,Wind Direction,Wind SpeedMPH,Gust SpeedMPH,PrecipitationIn,Events,Conditions,WindDirDegrees,DateUTC
12:33 AM,80.6,71.6,74,30.02,10.0,ESE,13.8,23.0,N/A,,Mostly Cloudy,110,2012-10-13 05:33:00
12:53 AM,80.1,71.1,74,29.98,10.0,ESE,16.1,21.9,N/A,,Overcast,110,2012-10-13 05:53:00
1:53 AM,80.1,71.1,74,29.97,10.0,ESE,13.8,-,N/A,,Overcast,110,2012-10-13 06:53:00
2:53 AM,79.0,71.1,77,29.96,10.0,ESE,15.0,20.7,N/A,,Overcast,120,2012-10-13 07:53:00
3:53 AM,79.0,72.0,79,29.94,10.0,SE,16.1,23.0,N/A,,Overcast,130,2012-10-13 08:53:00
4:53 AM,78.1,71.1,79,29.94,10.0,SE,13.8,-,N/A,,Overcast,130,2012-10-13 09:53:00
5:53 AM,78.1,71.1,79,29.94,10.0,SE,11.5,-,N/A,,Overcast,130,2012-10-13 10:53:00
6:53 AM,78.1,71.1,79,29.93,10.0,SE,12.7,-,N/A,,Overcast,130,2012-10-13 11:53:00
7:53 AM,78.1,71.1,79,29.93,10.0,SE,11.5,-,N/A,,Overcast,130,2012-10-13 12:53:00
8:53 AM,77.0,71.1,82,29.94,10.0,SE,10.4,19.6,0.00,Rain,Light Rain,130,2012-10-13 13:53:00
9:53 AM,77.0,72.0,84,29.95,8.0,SE,11.5,-,0.00,Rain,Light Rain,140,2012-10-13 14:53:00
10:53 AM,79.0,72.0,79,29.94,10.0,SE,12.7,-,0.00,,Overcast,140,2012-10-13 15:53:00
11:53 AM,82.0,71.1,69,29.93,10.0,SSE,11.5,-,N/A,,Overcast,160,2012-10-13 16:53:00
12:53 PM,84.0,71.1,65,29.91,10.0,SSE,15.0,23.0,N/A,,Overcast,160,2012-10-13 17:53:00
1:45 PM,87.8,71.6,58,29.92,10.0,SE,15.0,21.9,N/A,,Scattered Clouds,130,2012-10-13 18:45:00
1:53 PM,87.1,71.1,59,29.86,10.0,SSE,16.1,-,N/A,,Partly Cloudy,150,2012-10-13 18:53:00
2:53 PM,89.1,70.0,53,29.83,10.0,SE,16.1,23.0,N/A,,Partly Cloudy,140,2012-10-13 19:53:00
3:53 PM,88.0,69.1,53,29.81,10.0,SE,8.1,-,N/A,,Clear,130,2012-10-13 20:53:00
4:53 PM,87.1,70.0,57,29.81,10.0,SE,10.4,-,N/A,,Mostly Cloudy,140,2012-10-13 21:53:00
5:53 PM,86.0,70.0,59,29.78,10.0,SE,13.8,-,0.02,,Clear,130,2012-10-13 22:53:00
6:53 PM,86.0,69.8,58,29.82,10.0,ESE,4.6,-,N/A,,Clear,120,2012-10-13 23:53:00
7:53 PM,84.9,69.1,59,29.79,10.0,East,4.6,-,N/A,,Clear,100,2012-10-14 00:53:00
8:53 PM,84.0,69.1,61,29.81,10.0,East,5.8,-,N/A,,Partly Cloudy,100,2012-10-14 01:53:00
9:53 PM,81.0,70.0,69,29.83,10.0,Calm,Calm,-,N/A,,Clear,0,2012-10-14 02:53:00
10:53 PM,78.8,69.8,74,29.90,10.0,NNE,4.6,-,N/A,,Clear,20,2012-10-14 03:53:00